Regional Weather Roundup
Issued by NWS Newport/Morehead, NC

Current Version | Previous Version | Graphics & Text | Print | Product List | Glossary On
Versions: 1 2 3 4 5 6 7 8 9 10 11 12 13 14 15 16 17 18 19 20 21 22 23 24 25 26 27 28 29 30 31 32 33 34 35 36 37 38 39 40 41 42 43 44 45 46 47 48 49 50
000 ASUS42 KMHX 250913 RWRMHX WEATHER ROUNDUP FOR EASTERN NORTH CAROLINA NATIONAL WEATHER SERVICE NEWPORT/MOREHEAD CITY NC 500 AM EDT WED MAY 25 2016 NOTE: "FAIR" INDICATES FEW OR NO CLOUDS BELOW 12,000 FEET WITH NO SIGNIFICANT WEATHER AND/OR OBSTRUCTIONS TO VISIBILITY NCZ015>017-031-032-045>047-102-103-251000- NORTH COAST CITY SKY/WX TMP DP RH WIND PRES REMARKS EDENTON CLEAR N/A N/A N/A W5 30.17R ELIZABETH CITY PTCLDY 63 58 83 SW8 30.15R KITTY HAWK SUNNY 66 59 77 W6 30.14S MANTEO NOT AVBL $$ NCZ045>047-081-094-103-104-251000- CENTRAL COAST CITY SKY/WX TMP DP RH WIND PRES REMARKS FRISCO CLEAR 67 63 87 W6 30.17R $$ NCZ095-097-098-100-101-251000- SOUTHERN COAST CITY SKY/WX TMP DP RH WIND PRES REMARKS BEAUFORT CLEAR 67 60 78 CALM 30.18S CEDAR ISLAND NOT AVBL JACKSONVILLE CLEAR 60 57 89 W5 30.18R PINEY ISLAND SUNNY N/A N/A N/A W8 30.18R WILMINGTON CLEAR 61 59 93 CALM 30.19R $$ NCZ011>013-027>030-043-044-078>080-089-090>093-098-251000- COASTAL PLAIN CITY SKY/WX TMP DP RH WIND PRES REMARKS AHOSKIE CLEAR 56 54 90 CALM 30.17R CLINTON CLEAR 59 58 96 CALM 30.19S ELIZABETHTOWN CLEAR 63 58 85 CALM 30.19S GOLDSBORO CLEAR 61 61 100 W5 30.17S GREENVILLE CLEAR 61 59 94 CALM 30.19R HAVELOCK CLEAR 59 56 89 CALM 30.19S KENANSVILLE CLEAR 57 56 95 CALM 30.19F KINSTON CLEAR 61 57 88 SW5 30.19R NEW BERN CLEAR 62 56 80 W6 30.19S RICHLANDS CLEAR 55 55 100 CALM 30.19S ROCKY MOUNT CLEAR 59 56 89 S3 30.17R WASHINGTON CLEAR 61 56 85 CALM 30.18R WHITEVILLE CLEAR 61 58 88 CALM 30.19S $$ AMZ130-135-150-152-154-156-158-170-250-252-270-ANZ085-086-088-633-658-670-251000- MARINE OBSERVATIONS STATION/POSITION TIME TEMP WIND PRES WAVE SWELL AIR SEA DIR/SP/G HT/PER HT/PER (UTC) (F) (DEG/KT/KT) (MB) (FT/S) (FT/S) CHESAPEAKE LIGHT 0900 66 250/ 17/ 17 1020.4 64 E VA BEACH 0850 61 56 250/ 10/ 12 1019.8 3/ 6 3/ 6 DUCK 0800 67 61 240/ 10/ 13 1020.0 2 E DUCK 0811 62 N/A 2/10 OREGON INLET 0800 68 70 250/ 7/ 10 1020.8 13E OREGON INLT 0900 63 N/A 3/ 9 2/ 9 HATTERAS CG 0800 68 68 250/ 8/ 11 1020.8 DIAMOND BUOY 0850 68 67 270/ 8/ 10 1021.6 3/ 9 3/ 9 CAPE LOOKOUT 0900 69 270/ 7/ 8 1021.7 BEAUFORT LAB 0800 69 68 260/ 5/ 11 1021.1 30 SE NEW RVR IN 0825 73 N/A 3/ 4 27 SE WRIGHTSVLE 0808 73 72 250/ 10/ 14 1021.3 5 SE WRIGHTSVLE 0808 71 72 270/ 8/ 12 1022.6 225 S CAPE HAT 0850 73 78 40/ 6/ 8 1022.6 4/ 8 3/ 8 41 SE CHARLESTON 0850 75 75 210/ 4/ 4 1022.2 2/ 8 2/ 8 $$

USA.gov is the U.S. government's official web portal to all federal, state and local government web resources and services.